Location: Cartignies
(50.0929°N, 3.8447°E)
Time: 14:22:09
(UTC+00:00)

Cosmos 2184 Rocket - Pass Details

Date: 12 January 2026
Orbit: 959 x 1001 km, 82.9° (Epoch: 16 February)

Event Time Altitude Azimuth Distance (km) Brightness Sun altitude
Rises 16:34:26 0° 350° (N) 3,654 6.8 -4.7°
Reaches altitude 10° 16:36:56 10° 350° (N) 2,704 6.2 -5.0°
Maximum altitude 16:43:08 90° 75° (ENE) 970 4.1 -5.9°
Drops below altitude 10° 16:49:20 10° 173° (S) 2,702 6.6 -6.8°
Sets 16:51:49 0° 173° (S) 3,650 7.3 -7.1°
